Location: Terre Du Lac
(37.9120°N, 90.6250°W)
Time: 06:39:16
(UTC-05:00)

Hubble Space Telescope - Visible Passes

Search period start: 18 April 2015 00:00
Search period end: 28 April 2015 00:00
Orbit: 543 x 546 km, 28.5° (Epoch: 17 April)

Date Brightness Start Highest point End Pass type
(mag) Time Alt. Az. Time Alt. Az. Time Alt. Az.
18 Apr 3.1 04:15:07 14° SE 04:15:07 14° SE 04:16:19 10° SE visible
18 Apr 2.4 05:51:04 10° SW 05:54:20 22° S 05:57:36 10° SE visible
19 Apr 3.2 04:07:01 14° SE 04:07:01 14° SE 04:07:57 10° SE visible
19 Apr 2.4 05:42:31 10° SW 05:45:45 22° S 05:48:59 10° SE visible
20 Apr 3.3 03:58:57 12° SE 03:58:57 12° SE 03:59:30 10° SE visible
20 Apr 2.4 05:34:25 12° SW 05:37:10 21° S 05:40:18 10° SE visible
21 Apr 3.5 03:50:55 10° SE 03:50:55 10° SE 03:51:00 10° SE visible
21 Apr 2.4 05:26:23 14° SW 05:28:34 19° S 05:31:34 10° SE visible
22 Apr 2.5 05:18:25 15° SW 05:19:57 18° S 05:22:44 10° SSE visible
23 Apr 2.6 05:10:32 15° SSW 05:11:19 16° SSW 05:13:47 10° SSE visible
24 Apr 2.8 05:02:46 13° SSW 05:02:46 13° SSW 05:04:41 10° SSE visible
25 Apr 3.1 04:55:08 10° S 04:55:08 10° S 04:55:12 10° S visible
